Location: Rockford
(42.2710°N, 89.0940°W)
Time: 12:18:44
(UTC-05:00)

SPOT 5 - Visible Passes

Search period start: 28 August 2015 00:00
Search period end: 07 September 2015 00:00
Orbit: 821 x 823 km, 98.5° (Epoch: 28 August)

Date Brightness Start Highest point End Pass type
(mag) Time Alt. Az. Time Alt. Az. Time Alt. Az.
28 Aug 3.5 20:55:34 20° SE 20:58:56 45° ENE 21:04:03 10° N visible
28 Aug 5.0 22:36:59 18° SW 22:39:21 24° W 22:43:34 10° NW visible
29 Aug 4.0 20:35:19 15° ESE 20:38:56 31° ENE 20:43:38 10° N visible
29 Aug 4.4 22:16:43 25° SW 22:19:02 36° W 22:23:56 10° NNW visible
30 Aug 4.5 20:15:06 10° ESE 20:18:59 21° ENE 20:23:01 10° NNE visible
30 Aug 3.7 21:56:28 31° SSW 21:58:48 54° W 22:04:04 10° NNW visible
31 Aug 4.9 19:56:19 10° E 19:59:05 15° ENE 20:02:05 10° NNE visible
31 Aug 3.1 21:36:13 34° S 21:38:38 82° WSW 21:44:02 10° NNW visible
01 Sep 3.1 21:15:58 31° SSE 21:18:32 68° ENE 21:23:53 10° N visible
01 Sep 5.4 22:57:23 14° WSW 22:59:18 16° W 23:02:20 10° NW visible
02 Sep 3.5 20:55:43 25° SE 20:58:29 45° ENE 21:03:36 10° N visible
02 Sep 4.9 22:37:08 20° WSW 22:38:54 24° W 22:43:07 10° NW visible
03 Sep 4.0 20:35:28 18° ESE 20:38:29 31° ENE 20:43:11 10° N visible
03 Sep 4.4 22:16:53 29° SW 22:18:35 36° W 22:23:29 10° NNW visible
04 Sep 4.5 20:15:14 12° ESE 20:18:32 21° ENE 20:22:34 10° NNE visible
04 Sep 3.7 21:56:38 38° SSW 21:58:21 54° W 22:03:37 10° NNW visible
05 Sep 4.9 19:55:52 10° E 19:58:38 15° ENE 20:01:38 10° NNE visible
05 Sep 3.1 21:36:23 44° S 21:38:11 82° WSW 21:43:35 10° NNW visible
06 Sep 3.1 21:16:09 39° SE 21:18:04 68° ENE 21:23:26 10° N visible
06 Sep 5.4 22:57:34 15° WSW 22:58:50 16° W 23:01:53 10° NW visible
